User: anonymous   Login
Location: *
(57.8420°S, 159.8600°W)
Time: 02:26:25
(UTC+00:00)
Language:

Cosmos 1980 - Orbit

View from above orbital plane
View from above orbital plane
View from above satellite
View from above satellite

Ground track
Ground track

The orbit data is extracted from the following two-line orbital elements,

1 19649U 88102A   21207.82206161  .00000281  00000-0  17060-3 0  9994
2 19649  71.0002 156.0440 0006259 211.6229 148.4519 14.14732938686808
Epoch (UTC): 26 July 2021 19:43:46
Eccentricity: 0.0006259
inclination: 71.0002°
perigee height: 839 km
apogee height: 848 km
right ascension of ascending node: 156.0440°
argument of perigee: 211.6229°
revolutions per day: 14.14732938
mean anomaly at epoch: 148.4519°
orbit number at epoch: 68680

The dashed part of the orbit path shows where the satellite is in the earth's shadow,  

DLR